CW5456 Hansville WA US current weather conditions

sailwx.info

Last reported at 2015-Nov-03 14:30 UTC.
Time now 2016-Jul-01 02:50 UTC

Location: N 47°55' W 122°35'.
View on Google Maps.

See reports from other nearby stations

  
Tides and Currents Weather Stations Pressure Air Temp Water Temp Dewpoint Dewpoint Depression Visibility Wind Speed Wind Dir Waves Ship Positions
date/time (UTC)wind fromknots sea level pressurealtimeterstation pressurevisibilityair tempwater tempwave heightnotes
2016-Jul-01 01:44 252 7 gusting 7 14.4
2016-Jul-01 01:39 210 1 gusting 6 14.4
2016-Jul-01 01:34 241 2 gusting 6 14.4
2016-Jul-01 01:29 201 14.4
2016-Jul-01 01:24 337 1 gusting 5 14.4
2016-Jul-01 01:19 262 1 gusting 3 14.4
2016-Jul-01 01:14 290 14.4
2016-Jul-01 01:09 274 1 gusting 6 14.4
2016-Jul-01 01:04 216 1 gusting 6 14.4
2016-Jul-01 00:59 234 1 gusting 6 14.4
2016-Jul-01 00:54 263 3 gusting 6 15.0
2016-Jul-01 00:49 242 1 gusting 6 15.0
2016-Jul-01 00:44 327 0 gusting 6 15.0
2016-Jul-01 00:39 270 0 gusting 7 14.4
2016-Jul-01 00:34 235 5 gusting 9 14.4
2016-Jul-01 00:29 258 5 gusting 9 14.4
2016-Jul-01 00:24 286 3 gusting 7 14.4
2016-Jul-01 00:19 287 4 gusting 7 14.4
2016-Jul-01 00:14 231 6 gusting 8 14.4
2016-Jul-01 00:09 332 2 gusting 8 14.4
2016-Jul-01 00:04 265 6 gusting 7 14.4
2016-Jun-30 23:59 235 5 gusting 7 14.4
2016-Jun-30 23:54 212 2 gusting 7 14.4
2016-Jun-30 23:49 274 6 gusting 7 14.4
2016-Jun-30 23:44 293 5 gusting 6 14.4
2016-Jun-30 23:39 232 2 gusting 6 14.4
2016-Jun-30 23:34 239 1 gusting 6 14.4
2016-Jun-30 23:29 260 6 gusting 6 14.4
2016-Jun-30 23:24 243 3 gusting 6 14.4
2016-Jun-30 23:19 236 2 gusting 6 14.4
2016-Jun-30 23:14 274 3 gusting 5 14.4
2016-Jun-30 23:09 319 3 gusting 5 14.4
2016-Jun-30 23:04 312 1 gusting 5 14.4
2016-Jun-30 22:59 327 3 gusting 5 14.4
2016-Jun-30 22:54 327 2 gusting 5 14.4
2016-Jun-30 22:49 327 2 gusting 4 14.4
2016-Jun-30 22:44 327 4 gusting 4 14.4
2016-Jun-30 22:39 327 2 gusting 4 15.0
2016-Jun-30 22:34 314 4 gusting 4 15.0
2016-Jun-30 22:29 289 2 gusting 5 15.0
2016-Jun-30 22:24 271 2 gusting 5 15.0
2016-Jun-30 22:19 300 5 gusting 5 15.6
2016-Jun-30 22:14 301 4 gusting 4 15.6
2016-Jun-30 22:09 350 2 gusting 3 15.6
2016-Jun-30 22:04 014 2 gusting 2 15.6
2016-Jun-30 21:59 014 1 gusting 2 15.6
2016-Jun-30 21:54 014 15.6
2016-Jun-30 21:49 014 1 gusting 2 15.6
2016-Jun-30 21:44 014 1 gusting 3 15.6
2016-Jun-30 21:39 014 1 gusting 3 15.6
2016-Jun-30 21:34 023 15.6
2016-Jun-30 21:29 023 2 gusting 5 15.6
2016-Jun-30 21:24 004 1 gusting 4 15.6
2016-Jun-30 21:19 018 2 gusting 4 15.6
2016-Jun-30 21:14 010 1 gusting 3 15.6
2016-Jun-30 21:09 010 1 gusting 3 15.6
2016-Jun-30 21:04 016 2 gusting 3 15.6
2016-Jun-30 20:59 016 1 gusting 3 15.6
2016-Jun-30 20:54 018 3 gusting 3 15.6
2016-Jun-30 20:49 019 3 gusting 3 15.6
2016-Jun-30 20:44 022 2 gusting 3 15.6
2016-Jun-30 20:39 024 2 gusting 2 15.6
2016-Jun-30 20:34 347 0 gusting 2 15.6
2016-Jun-30 20:29 347 0 gusting 2 15.0
2016-Jun-30 20:24 347 0 gusting 2 15.0
2016-Jun-30 20:19 347 1 gusting 2 15.0
2016-Jun-30 20:14 347 1 gusting 3 15.0
2016-Jun-30 20:09 347 0 gusting 3 15.0
2016-Jun-30 20:04 347 2 gusting 3 15.0
2016-Jun-30 19:59 341 2 gusting 3 15.0
2016-Jun-30 19:54 345 1 gusting 3 15.0
2016-Jun-30 19:49 344 3 gusting 3 15.0
2016-Jun-30 19:44 308 2 gusting 3 15.0
2016-Jun-30 19:39 305 3 gusting 3 15.0
2016-Jun-30 19:34 356 0 gusting 3 15.0
2016-Jun-30 19:29 356 1 gusting 3 15.0
2016-Jun-30 19:24 016 15.0
2016-Jun-30 19:20 016 2 gusting 2 15.0
2016-Jun-30 19:14 016 0 gusting 3 15.0
2016-Jun-30 19:09 016 2 gusting 3 15.0
2016-Jun-30 19:05 016 0 gusting 3 15.0
2016-Jun-30 19:00 016 15.0
2016-Jun-30 18:55 025 0 gusting 5 15.0
2016-Jun-30 18:49 026 4 gusting 5 15.0
2016-Jun-30 18:44 017 2 gusting 3 15.0
2016-Jun-30 18:40 018 2 gusting 3 15.0
2016-Jun-30 18:34 347 2 gusting 3 14.4
2016-Jun-30 18:30 332 1 gusting 4 14.4
2016-Jun-30 18:24 268 1 gusting 4 14.4
2016-Jun-30 18:20 273 2 gusting 4 14.4
2016-Jun-30 18:14 277 2 gusting 4 14.4
2016-Jun-30 18:10 262 0 gusting 2 14.4
2016-Jun-30 18:05 262 14.4
2016-Jun-30 17:59 262 0 gusting 3 14.4
2016-Jun-30 17:54 262 0 gusting 3 14.4
2016-Jun-30 17:49 262 0 gusting 3 14.4
2016-Jun-30 17:45 262 14.4
2016-Jun-30 17:40 262 1 gusting 3 14.4
2016-Jun-30 17:35 253 1 gusting 4 14.4
2016-Jun-30 17:30 253 1 gusting 4 13.9
2016-Jun-30 17:25 327 1 gusting 3 13.9
2016-Jun-30 17:20 13.9
2016-Jun-30 17:15 002 2 gusting 4 14.4
2016-Jun-30 17:10 022 3 gusting 4 14.4
2016-Jun-30 17:05 025 3 gusting 3 13.9
2016-Jun-30 17:00 025 0 gusting 2 13.9
2016-Jun-30 16:55 025 1 gusting 4 13.9
2016-Jun-30 16:50 025 13.9
2016-Jun-30 16:45 019 14.4
2016-Jun-30 16:40 018 14.4
2016-Jun-30 16:35 020 0 gusting 3 14.4
2016-Jun-30 16:30 020 14.4
2016-Jun-30 16:25 020 0 gusting 5 14.4
2016-Jun-30 16:20 044 14.4
2016-Jun-30 16:15 077 1 gusting 5 14.4
2016-Jun-30 16:10 096 0 gusting 3 14.4
2016-Jun-30 16:05 066 1 gusting 3 13.9
2016-Jun-30 16:00 059 1 gusting 3 13.9
2016-Jun-30 15:55 039 1 gusting 1 13.9
2016-Jun-30 15:50 039 13.9
2016-Jun-30 15:45 039 1 gusting 2 13.9
2016-Jun-30 15:40 039 13.9
2016-Jun-30 15:35 044 13.9
2016-Jun-30 15:30 044 1 gusting 3 13.9
2016-Jun-30 15:25 035 1 gusting 2 13.9
2016-Jun-30 15:20 035 13.9
2016-Jun-30 15:15 035 13.3
2016-Jun-30 15:10 034 13.3
2016-Jun-30 15:05 034 13.3
2016-Jun-30 15:00 034 13.3
2016-Jun-30 14:55 034 0 gusting 3 13.3
2016-Jun-30 14:50 047 0 gusting 2 13.3
2016-Jun-30 14:45 047 13.3
2016-Jun-30 14:40 087 13.3
2016-Jun-30 14:35 087 13.3
2016-Jun-30 14:30 088 13.3
2016-Jun-30 14:20 087 13.3
2016-Jun-30 14:15 089 13.3
2016-Jun-30 14:10 089 13.3
2016-Jun-30 14:05 089 13.3
2016-Jun-30 14:00 089 13.3
2016-Jun-30 13:55 089 13.3
2016-Jun-30 13:50 089 13.3
2016-Jun-30 13:45 089 0 gusting 0 13.3
2016-Jun-30 13:40 089 13.3
2016-Jun-30 13:35 089 13.3
2016-Jun-30 13:30 089 13.3
2016-Jun-30 13:25 089 13.3
2016-Jun-30 13:20 089 13.3
2016-Jun-30 13:15 089 12.8
2016-Jun-30 13:10 089 12.8
2016-Jun-30 13:05 089 12.8
2016-Jun-30 13:00 089 12.8
2016-Jun-30 12:55 089 12.8
2016-Jun-30 12:50 089 12.8
2016-Jun-30 12:45 089 12.8
2016-Jun-30 12:40 089 12.8
2016-Jun-30 12:35 089 12.8
2016-Jun-30 12:30 089 0 gusting 1 12.8
2016-Jun-30 12:25 089 1 gusting 1 12.8
2016-Jun-30 12:20 089 12.8
2016-Jun-30 12:15 089 1 gusting 1 12.8
2016-Jun-30 12:10 089 1 gusting 1 12.8
2016-Jun-30 12:05 089 0 gusting 1 12.8
2016-Jun-30 12:00 089 12.8
2016-Jun-30 11:55 089 12.8
2016-Jun-30 11:50 089 12.8
2016-Jun-30 11:45 089 2 gusting 2 12.8
2016-Jun-30 11:40 089 0 gusting 2 12.2
2016-Jun-30 11:35 089 1 gusting 2 12.2
2016-Jun-30 11:30 089 1 gusting 2 12.2
2016-Jun-30 11:25 088 12.2
2016-Jun-30 11:20 087 12.2
2016-Jun-30 11:15 087 12.2
2016-Jun-30 11:09 088 12.2
2016-Jun-30 11:04 002 12.2
2016-Jun-30 10:59 002 0 gusting 1 12.2
2016-Jun-30 10:54 003 12.2
2016-Jun-30 10:49 003 1 gusting 2 12.2
2016-Jun-30 10:44 003 0 gusting 1 12.2
2016-Jun-30 10:39 002 11.7
2016-Jun-30 10:34 003 11.7
2016-Jun-30 10:29 002 11.7
2016-Jun-30 10:24 002 11.7
2016-Jun-30 10:19 003 11.7
2016-Jun-30 10:14 002 1 gusting 1 11.7
2016-Jun-30 10:09 003 0 gusting 1 11.7
2016-Jun-30 10:04 002 0 gusting 1 11.7
2016-Jun-30 09:59 003 1 gusting 1 11.7
2016-Jun-30 09:54 003 11.7
2016-Jun-30 09:49 003 11.7
2016-Jun-30 09:44 002 11.7
2016-Jun-30 09:39 003 11.7
2016-Jun-30 09:34 002 11.7
2016-Jun-30 09:29 003 11.7
2016-Jun-30 09:24 002 12.2
2016-Jun-30 09:19 003 12.2
2016-Jun-30 09:14 003 12.2
2016-Jun-30 09:09 003 12.2
2016-Jun-30 09:04 002 12.2
2016-Jun-30 08:59 003 12.2
2016-Jun-30 08:54 002 12.8
2016-Jun-30 08:49 003 1 gusting 2 12.8
2016-Jun-30 08:44 003 2 gusting 3 12.8
2016-Jun-30 08:39 003 1 gusting 3 12.8
2016-Jun-30 08:34 003 2 gusting 3 12.8
2016-Jun-30 08:29 002 1 gusting 2 12.8
2016-Jun-30 08:24 002 12.8
2016-Jun-30 08:19 003 12.8
2016-Jun-30 08:14 003 12.8
2016-Jun-30 08:09 003 12.8
2016-Jun-30 08:04 003 12.8
2016-Jun-30 07:59 003 12.8
2016-Jun-30 07:54 002 0 gusting 0 12.8
2016-Jun-30 07:49 003 12.8
2016-Jun-30 07:44 003 12.8
2016-Jun-30 07:39 003 1 gusting 2 12.8
2016-Jun-30 07:34 002 1 gusting 2 12.8
2016-Jun-30 07:29 003 1 gusting 4 12.8
2016-Jun-30 07:24 003 1 gusting 4 12.8
2016-Jun-30 07:19 002 2 gusting 4 12.8
2016-Jun-30 07:14 002 2 gusting 4 12.8
2016-Jun-30 07:09 008 3 gusting 5 12.8
2016-Jun-30 07:04 006 3 gusting 5 12.8
2016-Jun-30 07:00 12.8
2016-Jun-30 06:54 005 4 gusting 5 12.8
2016-Jun-30 06:49 008 2 gusting 6 12.8
2016-Jun-30 06:44 011 4 gusting 6 12.8
2016-Jun-30 06:39 004 4 gusting 6 13.3
2016-Jun-30 06:34 332 5 gusting 8 13.3
2016-Jun-30 06:29 344 6 gusting 10 13.3
2016-Jun-30 06:24 348 7 gusting 10 13.3
2016-Jun-30 06:19 359 8 gusting 8 13.3
2016-Jun-30 06:14 004 6 gusting 7 13.3
2016-Jun-30 06:09 004 5 gusting 6 13.3
2016-Jun-30 06:04 346 4 gusting 6 13.3
2016-Jun-30 05:59 345 2 gusting 4 13.3
2016-Jun-30 05:54 002 2 gusting 5 13.3
2016-Jun-30 05:49 002 3 gusting 6 13.3
2016-Jun-30 05:44 002 4 gusting 6 13.3
2016-Jun-30 05:39 001 5 gusting 6 13.3
2016-Jun-30 05:34 358 5 gusting 5 13.3
2016-Jun-30 05:29 358 4 gusting 6 13.3
2016-Jun-30 05:24 355 4 gusting 6 13.3
2016-Jun-30 05:19 349 4 gusting 7 13.3
2016-Jun-30 05:14 347 6 gusting 8 13.3
2016-Jun-30 05:09 343 6 gusting 9 13.9
2016-Jun-30 05:04 337 7 gusting 10 13.9
2016-Jun-30 04:59 332 7 gusting 10 13.9
2016-Jun-30 04:54 332 8 gusting 10 13.9
2016-Jun-30 04:49 332 10 gusting 10 13.9
2016-Jun-30 04:44 308 10 gusting 10 13.9
2016-Jun-30 04:39 332 7 gusting 10 13.9
2016-Jun-30 04:34 332 7 gusting 9 13.9
2016-Jun-30 04:29 304 8 gusting 9 13.9
2016-Jun-30 04:24 332 5 gusting 10 13.9
2016-Jun-30 04:19 274 9 gusting 10 13.9
2016-Jun-30 04:14 286 8 gusting 9 13.9
2016-Jun-30 04:09 305 5 gusting 7 13.9
2016-Jun-30 04:04 318 4 gusting 7 13.9
2016-Jun-30 03:59 310 4 gusting 7 13.9
2016-Jun-30 03:54 295 5 gusting 8 13.9
2016-Jun-30 03:49 332 5 gusting 8 13.9
2016-Jun-30 03:44 341 6 gusting 10 13.9
2016-Jun-30 03:40 337 6 gusting 10 13.9
2016-Jun-30 03:35 299 9 gusting 10 13.9
2016-Jun-30 03:30 283 7 gusting 8 13.9
2016-Jun-30 03:24 283 6 gusting 9 13.9
2016-Jun-30 03:20 236 6 gusting 9 14.4
2016-Jun-30 03:15 327 7 gusting 9 14.4
2016-Jun-30 03:09 290 5 gusting 10 14.4
2016-Jun-30 03:05 235 3 gusting 11 14.4
2016-Jun-30 03:00 299 9 gusting 11 14.4
2016-Jun-30 02:55 292 7 gusting 9 14.4
2016-Jun-30 02:49 275 8 gusting 9 14.4
2016-Jun-30 02:45 249 6 gusting 9 14.4
2016-Jun-30 02:40 299 4 gusting 9 14.4
2016-Jun-30 02:35 332 1 gusting 6 14.4
2016-Jun-30 02:29 231 13.9
2016-Jun-30 02:25 237 1 gusting 7 13.9
2016-Jun-30 02:20 227 6 gusting 9 13.9
2016-Jun-30 02:14 272 3 gusting 9 13.9
2016-Jun-30 02:10 255 6 gusting 10 13.9
2016-Jun-30 02:04 273 4 gusting 10 13.9
2016-Jun-30 02:00 229 7 gusting 8 13.9
2016-Jun-30 01:54 282 7 gusting 7 13.9
2016-Jun-30 01:49 262 3 gusting 7 13.9
2016-Jun-30 01:45 341 6 gusting 7 13.9
2016-Jun-30 01:40 256 5 gusting 7 13.9
2016-Jun-30 01:35 222 4 gusting 8 13.9
2016-Jun-30 01:30 266 3 gusting 8 13.9
2016-Jun-30 01:25 279 7 gusting 8 13.9
2016-Jun-30 01:20 268 6 gusting 8 13.9
2016-Jun-30 01:15 249 5 gusting 7 13.9
2016-Jun-30 01:10 286 4 gusting 7 13.9
2016-Jun-30 01:05 306 1 gusting 6 13.9
2016-Jun-30 01:00 225 4 gusting 7 13.9
2016-Jun-30 00:55 231 3 gusting 7 13.9
2016-Jun-30 00:50 270 1 gusting 9 13.9
2016-Jun-30 00:45 253 5 gusting 9 13.9
2016-Jun-30 00:40 297 5 gusting 8 13.9
2016-Jun-30 00:35 310 5 gusting 7 13.9
2016-Jun-30 00:30 278 1 gusting 7 13.9
2016-Jun-30 00:25 327 4 gusting 7 13.9
2016-Jun-30 00:20 317 3 gusting 6 13.9
2016-Jun-30 00:15 235 3 gusting 8 13.9
2016-Jun-30 00:10 246 6 gusting 8 13.9
2016-Jun-30 00:05 290 7 gusting 8 13.9
2016-Jun-30 00:00 332 1 gusting 7 14.4
2016-Jun-29 23:55 337 2 gusting 7 13.9
2016-Jun-29 23:50 293 4 gusting 9 13.9
2016-Jun-29 23:45 337 5 gusting 9 13.9
2016-Jun-29 23:40 307 5 gusting 8 13.9
2016-Jun-29 23:35 332 6 gusting 7 13.9
2016-Jun-29 23:30 295 4 gusting 7 13.9
2016-Jun-29 23:25 327 4 gusting 6 14.4
2016-Jun-29 23:20 327 2 gusting 6 14.4
2016-Jun-29 23:15 327 3 gusting 7 15.0
2016-Jun-29 23:10 332 5 gusting 9 15.6
2016-Jun-29 23:05 295 7 gusting 9 16.7
2016-Jun-29 23:00 022 5 gusting 6 16.7
2016-Jun-29 22:55 011 5 gusting 6 16.7
2016-Jun-29 22:50 027 5 gusting 5 16.7
2016-Jun-29 22:45 029 3 gusting 5 16.7
2016-Jun-29 22:40 024 2 gusting 4 16.7
2016-Jun-29 22:35 029 3 gusting 4 16.7
2016-Jun-29 22:30 025 1 gusting 2 16.7
2016-Jun-29 22:25 025 1 gusting 4 16.7
2016-Jun-29 22:20 031 0 gusting 4 16.7
2016-Jun-29 22:15 037 1 gusting 4 16.7
2016-Jun-29 22:10 025 0 gusting 5 16.7
2016-Jun-29 22:05 031 0 gusting 5 16.7
2016-Jun-29 22:00 031 2 gusting 6 16.7
2016-Jun-29 21:55 022 1 gusting 6 16.7
2016-Jun-29 21:50 032 1 gusting 4 16.7
2016-Jun-29 21:45 030 2 gusting 3 16.1
2016-Jun-29 21:40 021 0 gusting 4 16.1
2016-Jun-29 21:35 020 1 gusting 4 16.1
2016-Jun-29 21:30 021 2 gusting 3 16.1
2016-Jun-29 21:25 027 1 gusting 4 16.1
2016-Jun-29 21:20 025 2 gusting 4 16.1
2016-Jun-29 21:15 028 2 gusting 4 16.1
2016-Jun-29 21:10 041 1 gusting 3 16.1
2016-Jun-29 21:05 060 16.1
2016-Jun-29 21:00 031 0 gusting 4 15.6
2016-Jun-29 20:55 043 15.6
2016-Jun-29 20:50 029 1 gusting 4 15.6
2016-Jun-29 20:45 021 1 gusting 5 15.6
2016-Jun-29 20:40 017 3 gusting 5 15.6
2016-Jun-29 20:35 017 2 gusting 4 15.6
2016-Jun-29 20:30 023 2 gusting 5 15.6
2016-Jun-29 20:25 032 3 gusting 5 15.6
2016-Jun-29 20:20 018 1 gusting 4 15.6
2016-Jun-29 20:15 032 1 gusting 4 15.6
2016-Jun-29 20:10 021 2 gusting 4 15.6
2016-Jun-29 20:05 021 3 gusting 4 15.6
2016-Jun-29 20:00 027 1 gusting 3 15.6
2016-Jun-29 19:55 027 3 gusting 3 15.0
2016-Jun-29 19:50 027 1 gusting 3 15.0
2016-Jun-29 19:45 028 1 gusting 3 15.0
2016-Jun-29 19:40 028 1 gusting 3 15.0
2016-Jun-29 19:35 028 2 gusting 2 15.0
2016-Jun-29 19:30 028 0 gusting 2 15.0
2016-Jun-29 19:25 028 0 gusting 3 15.0
2016-Jun-29 19:20 028 2 gusting 3 15.0
2016-Jun-29 19:15 028 3 gusting 3 15.0
2016-Jun-29 19:10 028 1 gusting 2 15.0
2016-Jun-29 19:05 028 15.0
2016-Jun-29 19:00 028 1 gusting 1 14.4
2016-Jun-29 18:55 028 0 gusting 1 14.4
2016-Jun-29 18:49 028 14.4
2016-Jun-29 18:44 028 14.4
2016-Jun-29 18:39 028 14.4
2016-Jun-29 18:34 028 14.4
2016-Jun-29 18:29 028 2 gusting 3 14.4
2016-Jun-29 18:24 028 1 gusting 4 14.4
2016-Jun-29 18:19 028 3 gusting 4 14.4
2016-Jun-29 18:14 031 2 gusting 3 14.4
2016-Jun-29 18:09 031 14.4
2016-Jun-29 18:04 024 0 gusting 1 14.4
2016-Jun-29 17:59 024 14.4
2016-Jun-29 17:54 024 14.4
2016-Jun-29 17:49 024 14.4
2016-Jun-29 17:45 023 14.4
2016-Jun-29 17:39 025 14.4
2016-Jun-29 17:34 025 0 gusting 2 14.4
2016-Jun-29 17:29 025 14.4
2016-Jun-29 17:24 028 2 gusting 3 14.4
2016-Jun-29 17:19 028 2 gusting 3 14.4
2016-Jun-29 17:14 125 14.4
2016-Jun-29 17:09 070 0 gusting 2 14.4
2016-Jun-29 17:04 070 0 gusting 1 14.4
2016-Jun-29 16:59 077 14.4
2016-Jun-29 16:54 077 0 gusting 3 14.4
2016-Jun-29 16:49 079 13.9
2016-Jun-29 16:44 010 13.9
2016-Jun-29 16:39 009 2 gusting 2 13.9
2016-Jun-29 16:34 008 0 gusting 0 13.9
2016-Jun-29 16:29 008 0 gusting 2 13.9
2016-Jun-29 16:24 008 13.9
2016-Jun-29 16:19 358 1 gusting 2 13.9
2016-Jun-29 16:14 231 0 gusting 1 13.9
2016-Jun-29 16:09 231 13.9
2016-Jun-29 16:04 231 13.9
2016-Jun-29 15:59 231 13.3
2016-Jun-29 15:54 231 13.3
2016-Jun-29 15:49 231 13.3
2016-Jun-29 15:44 231 13.3
2016-Jun-29 15:39 231 13.3
2016-Jun-29 15:34 231 13.3
2016-Jun-29 15:29 231 1 gusting 2 13.3
2016-Jun-29 15:24 231 1 gusting 2 13.3
2016-Jun-29 15:19 231 1 gusting 2 13.3
2016-Jun-29 15:14 231 0 gusting 2 13.3
2016-Jun-29 15:09 231 1 gusting 2 13.3
2016-Jun-29 15:04 231 2 gusting 2 13.3
2016-Jun-29 14:59 231 0 gusting 2 13.3
2016-Jun-29 14:54 231 0 gusting 2 13.3
2016-Jun-29 14:49 225 2 gusting 2 13.3
2016-Jun-29 14:44 224 1 gusting 1 13.3
2016-Jun-29 14:39 224 13.3
2016-Jun-29 14:34 224 13.9
2016-Jun-29 14:29 224 13.3
2016-Jun-29 14:24 224 13.3
2016-Jun-29 14:19 224 13.3
2016-Jun-29 14:14 224 13.3
2016-Jun-29 14:09 346 13.3
2016-Jun-29 14:04 347 13.3
2016-Jun-29 13:59 347 13.3
2016-Jun-29 13:54 346 13.3
2016-Jun-29 13:49 347 13.3
2016-Jun-29 13:44 346 13.3
2016-Jun-29 13:39 347 0 gusting 0 13.3
2016-Jun-29 13:34 346 13.3
2016-Jun-29 13:29 347 13.3
2016-Jun-29 13:24 347 12.8
2016-Jun-29 13:19 347 12.8
2016-Jun-29 13:14 346 12.8
2016-Jun-29 13:09 346 12.8
2016-Jun-29 13:04 347 12.8
2016-Jun-29 12:59 346 12.8
2016-Jun-29 12:54 346 12.8
2016-Jun-29 12:49 347 12.8
2016-Jun-29 12:44 347 12.8
2016-Jun-29 12:39 347 12.8
2016-Jun-29 12:34 346 12.8
2016-Jun-29 12:29 347 12.8
2016-Jun-29 12:24 346 12.8
2016-Jun-29 12:19 332 12.8
2016-Jun-29 12:14 332 12.8
2016-Jun-29 12:09 337 12.8
2016-Jun-29 12:04 332 12.8
2016-Jun-29 11:59 332 12.8
2016-Jun-29 11:54 332 0 gusting 0 12.8
2016-Jun-29 11:49 337 12.8
2016-Jun-29 11:44 332 12.8
2016-Jun-29 11:39 332 12.8
2016-Jun-29 11:34 337 12.8
2016-Jun-29 11:29 337 0 gusting 1 12.8
2016-Jun-29 11:24 332 12.8
2016-Jun-29 11:19 332 12.8
2016-Jun-29 11:14 337 12.8
2016-Jun-29 11:09 337 12.8
2016-Jun-29 11:04 332 12.8
2016-Jun-29 11:00 285 12.2
2016-Jun-29 10:54 285 12.2
2016-Jun-29 10:49 285 12.2
2016-Jun-29 10:44 285 12.2
2016-Jun-29 10:39 285 12.2
2016-Jun-29 10:34 285 12.2
2016-Jun-29 10:29 285 12.2
2016-Jun-29 10:24 285 12.2
2016-Jun-29 10:19 285 12.2
2016-Jun-29 10:14 285 12.2
2016-Jun-29 10:09 285 12.2
2016-Jun-29 10:04 285 12.2
2016-Jun-29 10:00 285 12.2
2016-Jun-29 09:55 285 12.2
2016-Jun-29 09:50 285 0 gusting 0 12.2
2016-Jun-29 09:45 285 12.2
2016-Jun-29 09:40 285 12.2
2016-Jun-29 09:34 285 12.2
2016-Jun-29 09:29 285 12.2
2016-Jun-29 09:25 285 12.2
2016-Jun-29 09:20 285 12.8
2016-Jun-29 09:14 285 12.8
2016-Jun-29 09:09 285 12.8
2016-Jun-29 09:04 285 12.8
2016-Jun-29 09:00 285 12.8
2016-Jun-29 08:55 285 12.8
2016-Jun-29 08:50 285 12.8
2016-Jun-29 08:45 285 1 gusting 2 12.8
2016-Jun-29 08:40 279 0 gusting 0 12.8
2016-Jun-29 08:35 279 12.8
2016-Jun-29 08:29 279 0 gusting 3 12.8
2016-Jun-29 08:25 278 2 gusting 3 12.8
2016-Jun-29 08:20 278 2 gusting 4 12.8
2016-Jun-29 08:14 278 3 gusting 5 12.8
2016-Jun-29 08:10 278 1 gusting 5 12.8
2016-Jun-29 08:05 291 1 gusting 6 13.3
2016-Jun-29 08:00 252 2 gusting 6 13.3
2016-Jun-29 07:55 276 3 gusting 6 13.3
2016-Jun-29 07:50 283 3 gusting 4 13.3
2016-Jun-29 07:45 332 3 gusting 4 12.8
2016-Jun-29 07:40 283 1 gusting 2 12.8
2016-Jun-29 07:35 283 12.8
2016-Jun-29 07:30 283 12.8
2016-Jun-29 07:25 282 12.8
2016-Jun-29 07:20 285 2 gusting 3 12.8
2016-Jun-29 07:15 280 2 gusting 6 13.3
2016-Jun-29 07:10 258 13.3
2016-Jun-29 07:05 293 2 gusting 6 13.3
2016-Jun-29 07:00 274 3 gusting 6 13.3
2016-Jun-29 06:55 332 13.3
2016-Jun-29 06:50 256 5 gusting 6 13.3
2016-Jun-29 06:45 233 5 gusting 6 13.3
2016-Jun-29 06:40 306 3 gusting 6 13.3
2016-Jun-29 06:35 310 2 gusting 6 13.3
2016-Jun-29 06:30 239 13.3
2016-Jun-29 06:25 238 13.3
2016-Jun-29 06:20 291 13.3
2016-Jun-29 06:15 224 13.3
2016-Jun-29 06:10 235 1 gusting 5 13.9
2016-Jun-29 06:05 301 13.9
2016-Jun-29 06:00 282 13.9
2016-Jun-29 05:55 327 2 gusting 4 13.9
2016-Jun-29 05:50 356 13.9
2016-Jun-29 05:45 356 13.9
2016-Jun-29 05:40 356 13.9
2016-Jun-29 05:35 356 14.4
2016-Jun-29 05:30 356 14.4
2016-Jun-29 05:25 356 1 gusting 1 14.4
2016-Jun-29 05:20 356 14.4
2016-Jun-29 05:15 354 14.4
2016-Jun-29 05:10 353 14.4
2016-Jun-29 05:05 299 14.4
2016-Jun-29 05:00 307 14.4
2016-Jun-29 04:55 327 14.4
2016-Jun-29 04:50 332 14.4
2016-Jun-29 04:45 086 14.4
2016-Jun-29 04:40 347 14.4
2016-Jun-29 04:35 018 14.4
2016-Jun-29 04:30 278 14.4
2016-Jun-29 04:25 278 14.4
2016-Jun-29 04:20 278 14.4
2016-Jun-29 04:15 298 14.4
2016-Jun-29 04:10 224 14.4
2016-Jun-29 04:05 275 2 gusting 6 14.4
2016-Jun-29 04:00 341 15.0
2016-Jun-29 03:55 341 15.0
2016-Jun-29 03:50 232 15.0
2016-Jun-29 03:45 232 15.0
2016-Jun-29 03:40 269 0 gusting 3 15.0
2016-Jun-29 03:35 262 15.6
2016-Jun-29 03:30 171 15.6
2016-Jun-29 03:25 233 5 gusting 7 16.1
2016-Jun-29 03:20 245 1 gusting 6 16.1
2016-Jun-29 03:15 237 16.7
2016-Jun-29 03:10 259 3 gusting 5 16.7
2016-Jun-29 03:05 245 5 gusting 5 16.7
2016-Jun-29 03:00 239 16.7
2016-Jun-29 02:55 247 1 gusting 3 16.7
2016-Jun-29 02:50 233 2 gusting 6 16.1
2016-Jun-29 02:45 226 0 gusting 6 16.1
2016-Jun-29 02:40 278 6 gusting 6 16.1
2016-Jun-29 02:35 251 2 gusting 3 16.1
2016-Jun-29 02:29 191 0 gusting 3 16.1
2016-Jun-29 02:24 254 2 gusting 6 15.6
2016-Jun-29 02:19 266 15.6
2016-Jun-29 02:14 275 3 gusting 6 15.6
2016-Jun-29 02:09 272 1 gusting 6 15.6
2016-Jun-29 02:04 306 4 gusting 7 15.6